Weather History for LEJR - March, 2013

Change the Weather History Date:

Saturday, March 23, 2013

  Actual Average Record
Temperature  
Mean Temperature 54 °F -  
Max Temperature 58 °F 69 °F 82 °F (2001)
Min Temperature 50 °F 48 °F 35 °F (2007)
Degree Days  
Heating Degree Days 11    
Growing Degree Days 4 (Base 50)    
Moisture  
Dew Point 51 °F    
Average Humidity 95    
Maximum Humidity 100    
Minimum Humidity 88    
Precipitation  
Precipitation 0.47 in 0.07 in - ()
Sea Level Pressure  
Sea Level Pressure 29.66 in    
Wind  
Wind Speed 5 mph ()    
Max Wind Speed 15 mph    
Max Gust Speed -    
Visibility 5.8 miles    
Events Rain , Thunderstorm    
Averages and records for this station are not official NWS values.
T = Trace of Precipitation, MM = Missing Value Source: Averaged Metar Reports

Daily Weather History Graph

Daily Weather History Graph

Search for Another Location

Airport or City:

Trip Planner

Search our weather history database for the weather conditions in past years. The results will help you decide how hot, cold, wet, or windy it might be!

Date:

Astronomy

Mar. 23, 2013 Rise Set
Actual Time 7:23 AM CET 7:38 PM CET
Civil Twilight 6:57 AM CET 8:04 PM CET
Nautical Twilight 6:27 AM CET 8:34 PM CET
Astronomical Twilight 5:56 AM CET 9:05 PM CET
Moon 3:56 PM CET (3/23) 4:45 AM CET (3/23)
Length of Visible Light 13h 07m
Length of Day
12h 15m
Waxing Gibbous, 83% of the Moon is Illuminated
Mar 23
Waxing Gibbous
Mar 27
Full
Apr 3
Last Quarter
Apr 10
New
Apr 18
First Quarter

Hourly Weather History & Observations

Time (CET) Temp. Dew Point Humidity Pressure Visibility Wind Dir Wind Speed Gust Speed Precip Events Conditions
1:00 AM 54 °F 54 °F 99% 29.83 in - South 5.8 mph - -  
5:00 AM 50.0 °F 50.0 °F 100% 29.71 in 6.2 mi Variable 1.2 mph - N/A   Scattered Clouds
5:30 AM 50.0 °F 50.0 °F 100% 29.71 in 6.2 mi Variable 1.2 mph - N/A   Scattered Clouds
6:00 AM 51.8 °F 51.8 °F 100% 29.71 in 6.2 mi Variable 1.2 mph - N/A Rain Rain
6:30 AM 50.0 °F 50.0 °F 100% 29.71 in 6.2 mi Variable 2.3 mph - N/A Rain , Thunderstorm Light Rain
7:00 AM 52 °F 52 °F 100% 29.73 in 9 mi SE 5.8 mph - - Thunderstorm Light Thunderstorm
7:00 AM 51.8 °F 50.0 °F 94% 29.71 in 6.2 mi SE 3.5 mph - N/A Thunderstorm Mostly Cloudy
7:30 AM 50.0 °F 50.0 °F 100% 29.71 in 6.2 mi SE 3.5 mph - N/A   Scattered Clouds
8:00 AM 50.0 °F 50.0 °F 100% 29.71 in 6.2 mi Variable 1.2 mph - N/A   Scattered Clouds
8:30 AM 53.6 °F 51.8 °F 94% 29.68 in 6.2 mi Calm Calm - N/A   Scattered Clouds
9:00 AM 53.6 °F 51.8 °F 94% 29.68 in 6.2 mi SSE 3.5 mph - N/A   Scattered Clouds
9:30 AM 53.6 °F 53.6 °F 100% 29.68 in 6.2 mi SE 6.9 mph - N/A   Scattered Clouds
10:00 AM 53.6 °F 50.0 °F 88% 29.68 in 6.2 mi WSW 15.0 mph - N/A Rain Rain
10:30 AM 51.8 °F 50.0 °F 94% 29.68 in 6.2 mi North 4.6 mph - N/A Rain Rain
11:00 AM 51.8 °F 50.0 °F 94% 29.68 in 3.7 mi Variable 2.3 mph - N/A Rain Rain
11:30 AM 51.8 °F 51.8 °F 100% 29.68 in 4.3 mi Variable 1.2 mph - N/A Rain Rain
12:00 PM 53.6 °F 51.8 °F 94% 29.68 in 3.1 mi SSE 6.9 mph - N/A Rain Rain
12:30 PM 55.4 °F 53.6 °F 94% 29.65 in 3.7 mi SE 8.1 mph - N/A Rain Rain
1:00 PM 54 °F 53 °F 95% 29.67 in - SE 12.7 mph - -   Unknown Precipitation
1:00 PM 53.6 °F 51.8 °F 94% 29.65 in 3.7 mi SSE 12.7 mph - N/A Rain Rain
1:30 PM 53.6 °F 51.8 °F 94% 29.65 in 3.7 mi South 5.8 mph - N/A Rain Rain
2:00 PM 53.6 °F 51.8 °F 94% 29.62 in 3.7 mi South 9.2 mph - N/A Rain Rain
2:30 PM 51.8 °F 50.0 °F 94% 29.62 in 6.2 mi South 10.4 mph - N/A Rain Light Rain
3:00 PM 53.6 °F 51.8 °F 94% 29.62 in 6.2 mi SSW 10.4 mph - N/A   Scattered Clouds
3:30 PM 55.4 °F 53.6 °F 94% 29.59 in 6.2 mi South 11.5 mph - N/A   Scattered Clouds
4:00 PM 55.4 °F 51.8 °F 88% 29.59 in 6.2 mi South 12.7 mph - N/A   Mostly Cloudy
4:30 PM 55.4 °F 53.6 °F 94% 29.59 in 6.2 mi SSW 15.0 mph - N/A Rain Light Rain
5:00 PM 53.6 °F 51.8 °F 94% 29.59 in 6.2 mi SSW 12.7 mph - N/A   Mostly Cloudy
5:30 PM 53.6 °F 50.0 °F 88% 29.59 in 6.2 mi South 8.1 mph - N/A   Mostly Cloudy
6:00 PM 53.6 °F 51.8 °F 94% 29.59 in 6.2 mi South 9.2 mph - N/A   Mostly Cloudy
6:18 PM 53.6 °F 51.8 °F 94% 29.59 in 3.7 mi South 10.4 mph - N/A Rain Rain
6:30 PM 53.6 °F 51.8 °F 94% 29.62 in 3.1 mi SSW 8.1 mph - N/A Rain Rain
6:39 PM 53.6 °F 51.8 °F 94% 29.62 in 6.2 mi Calm Calm - N/A   Mostly Cloudy
7:00 PM 54 °F 53 °F 93% 29.63 in 12 mi Calm Calm - - Rain Light Rain
7:00 PM 53.6 °F 51.8 °F 94% 29.62 in 6.2 mi Calm Calm - N/A   Mostly Cloudy
7:30 PM 53.6 °F 51.8 °F 94% 29.62 in 5.0 mi SW 5.8 mph - N/A Rain Rain
8:00 PM 53.6 °F 51.8 °F 94% 29.65 in 6.2 mi Variable 1.2 mph - N/A   Mostly Cloudy
8:30 PM 53.6 °F 51.8 °F 94% 29.65 in 6.2 mi West 3.5 mph - N/A   Mostly Cloudy
9:00 PM 53.6 °F 51.8 °F 94% 29.68 in 6.2 mi WSW 4.6 mph - N/A   Mostly Cloudy
9:30 PM 51.8 °F 51.8 °F 100% 29.68 in 6.2 mi Variable 2.3 mph - N/A   Mostly Cloudy
10:00 PM 51.8 °F 50.0 °F 94% 29.71 in 6.2 mi Variable 1.2 mph - N/A   Mostly Cloudy
10:30 PM 51.8 °F 50.0 °F 94% 29.71 in 6.2 mi Variable 2.3 mph - N/A   Mostly Cloudy
11:00 PM 50.0 °F 48.2 °F 94% 29.71 in 6.2 mi Variable 1.2 mph - N/A   Partly Cloudy